Station Historical Data
Daily Summary for March 21, 2012 Units:  English    Metric   Both
« Previous Day
Next Day »
Daily Weekly Monthly Yearly Custom
  High: Low: Average:
Temperature: 76.7 °F 63.6 °F 70.8 °F
Dew Point: 63.6 °F 54.3 °F 58.5 °F
Humidity: 79% 56% 65%
Wind Speed: 18.0mph 2.0mph 7.8mph
Wind Gust: 24.0mph - -
Wind- - ESE
Pressure: 30.05 in 29.96 in -
Precipitation: 0.00 in    
Historical Graphs
 
 
Tabular Data for March 21, 2012
Time Temperature Dew Point Pressure Wind Wind Speed Wind Gust Humidity Rainfall Rate (Hourly) Conditions
00:00 71.3 °F 55.3 °F 29.99 in East 5.0 mph 8.0 mph 57% 0.00 in
00:01 71.2 °F 55.2 °F 29.99 in ESE 7.0 mph 9.0 mph 57% 0.00 in
00:06 71.2 °F 55.2 °F 29.99 in ESE 8.0 mph 9.0 mph 57% 0.00 in
00:11 71.3 °F 55.3 °F 29.99 in SE 6.0 mph 10.0 mph 57% 0.00 in
00:16 71.1 °F 55.1 °F 30.00 in ESE 4.0 mph 8.0 mph 57% 0.00 in
00:21 71.0 °F 55.0 °F 30.00 in East 7.0 mph 9.0 mph 57% 0.00 in
00:26 71.0 °F 55.0 °F 30.00 in ESE 6.0 mph 8.0 mph 57% 0.00 in
00:31 71.0 °F 55.0 °F 30.00 in ESE 7.0 mph 8.0 mph 57% 0.00 in
00:36 70.8 °F 54.8 °F 30.00 in East 7.0 mph 8.0 mph 57% 0.00 in
00:41 70.6 °F 54.6 °F 30.00 in ESE 4.0 mph 8.0 mph 57% 0.00 in
00:46 70.5 °F 55.0 °F 30.00 in SE 4.0 mph 8.0 mph 58% 0.00 in
00:51 70.3 °F 54.8 °F 29.99 in SE 5.0 mph 7.0 mph 58% 0.00 in
00:56 70.1 °F 54.7 °F 29.99 in SE 6.0 mph 9.0 mph 58% 0.00 in
01:01 70.0 °F 54.6 °F 30.00 in ESE 4.0 mph 9.0 mph 58% 0.00 in
01:07 69.9 °F 54.9 °F 30.00 in SE 5.0 mph 9.0 mph 59% 0.00 in
01:12 69.7 °F 54.8 °F 30.00 in SE 5.0 mph 7.0 mph 59% 0.00 in
01:17 69.5 °F 55.0 °F 30.00 in SE 6.0 mph 8.0 mph 60% 0.00 in
01:22 69.4 °F 54.9 °F 30.00 in ESE 7.0 mph 8.0 mph 60% 0.00 in
01:27 69.3 °F 54.8 °F 30.00 in ESE 5.0 mph 7.0 mph 60% 0.00 in
01:32 69.2 °F 54.7 °F 30.00 in ESE 8.0 mph 8.0 mph 60% 0.00 in
01:37 69.2 °F 54.7 °F 30.00 in ESE 5.0 mph 7.0 mph 60% 0.00 in
01:42 69.2 °F 54.7 °F 30.01 in ESE 5.0 mph 10.0 mph 60% 0.00 in
01:47 69.2 °F 54.7 °F 30.01 in SE 7.0 mph 9.0 mph 60% 0.00 in
01:52 69.1 °F 54.7 °F 30.01 in ESE 5.0 mph 8.0 mph 60% 0.00 in
01:57 68.8 °F 54.8 °F 30.01 in SE 4.0 mph 9.0 mph 61% 0.00 in
02:02 68.6 °F 54.6 °F 30.00 in SE 3.0 mph 7.0 mph 61% 0.00 in
02:07 68.4 °F 54.4 °F 30.01 in East 5.0 mph 8.0 mph 61% 0.00 in
02:12 68.3 °F 54.8 °F 30.01 in SE 5.0 mph 6.0 mph 62% 0.00 in
02:17 68.2 °F 54.7 °F 30.01 in ESE 6.0 mph 8.0 mph 62% 0.00 in
02:22 68.3 °F 54.8 °F 30.01 in ESE 6.0 mph 8.0 mph 62% 0.00 in
02:27 68.3 °F 54.8 °F 30.01 in SE 5.0 mph 8.0 mph 62% 0.00 in
02:32 68.3 °F 54.8 °F 30.01 in ESE 5.0 mph 8.0 mph 62% 0.00 in
02:37 68.4 °F 54.4 °F 30.01 in ESE 6.0 mph 8.0 mph 61% 0.00 in
02:42 68.3 °F 54.8 °F 30.01 in SE 4.0 mph 8.0 mph 62% 0.00 in
02:47 68.0 °F 54.5 °F 30.01 in ESE 4.0 mph 6.0 mph 62% 0.00 in
02:52 67.9 °F 54.8 °F 30.01 in ESE 7.0 mph 8.0 mph 63% 0.00 in
02:57 67.9 °F 54.8 °F 30.00 in ESE 5.0 mph 9.0 mph 63% 0.00 in
03:02 67.8 °F 54.3 °F 30.01 in ESE 7.0 mph 8.0 mph 62% 0.00 in
03:07 68.0 °F 54.5 °F 30.01 in ESE 5.0 mph 10.0 mph 62% 0.00 in
03:12 68.0 °F 54.5 °F 30.01 in ESE 7.0 mph 10.0 mph 62% 0.00 in
03:17 67.8 °F 54.8 °F 30.01 in ESE 6.0 mph 7.0 mph 63% 0.00 in
03:22 67.9 °F 54.8 °F 30.00 in SE 6.0 mph 12.0 mph 63% 0.00 in
03:27 67.9 °F 54.4 °F 30.00 in SE 6.0 mph 11.0 mph 62% 0.00 in
03:32 67.9 °F 54.8 °F 30.00 in ESE 6.0 mph 8.0 mph 63% 0.00 in
03:37 67.8 °F 54.8 °F 30.00 in ESE 6.0 mph 9.0 mph 63% 0.00 in
03:42 68.0 °F 54.5 °F 30.00 in East 6.0 mph 11.0 mph 62% 0.00 in
03:47 68.1 °F 54.6 °F 30.00 in ESE 7.0 mph 9.0 mph 62% 0.00 in
03:52 68.1 °F 54.6 °F 30.00 in ESE 10.0 mph 10.0 mph 62% 0.00 in
03:57 68.0 °F 54.5 °F 29.99 in ESE 8.0 mph 10.0 mph 62% 0.00 in
04:02 68.0 °F 54.5 °F 29.99 in ESE 9.0 mph 11.0 mph 62% 0.00 in
04:07 68.0 °F 54.5 °F 29.99 in SE 10.0 mph 11.0 mph 62% 0.00 in
04:12 68.0 °F 55.0 °F 30.00 in SE 5.0 mph 9.0 mph 63% 0.00 in
04:18 68.0 °F 54.5 °F 29.99 in SE 5.0 mph 12.0 mph 62% 0.00 in
04:23 67.7 °F 54.7 °F 29.99 in ESE 7.0 mph 10.0 mph 63% 0.00 in
04:28 67.4 °F 54.8 °F 29.99 in SE 6.0 mph 9.0 mph 64% 0.00 in
04:33 67.2 °F 54.6 °F 30.00 in ESE 6.0 mph 8.0 mph 64% 0.00 in
04:38 67.1 °F 55.0 °F 30.00 in SE 7.0 mph 10.0 mph 65% 0.00 in
04:43 67.1 °F 55.0 °F 29.99 in ESE 6.0 mph 9.0 mph 65% 0.00 in
04:48 67.2 °F 55.0 °F 29.99 in SE 8.0 mph 10.0 mph 65% 0.00 in
04:53 67.2 °F 55.0 °F 29.99 in East 7.0 mph 10.0 mph 65% 0.00 in
04:58 67.1 °F 55.0 °F 29.99 in ESE 6.0 mph 10.0 mph 65% 0.00 in
05:03 67.0 °F 55.3 °F 29.99 in ESE 8.0 mph 12.0 mph 66% 0.00 in
05:08 67.3 °F 55.2 °F 29.99 in ESE 8.0 mph 13.0 mph 65% 0.00 in
05:13 67.2 °F 55.5 °F 30.00 in SE 5.0 mph 13.0 mph 66% 0.00 in
05:18 67.0 °F 55.3 °F 30.00 in SE 7.0 mph 9.0 mph 66% 0.00 in
05:23 66.9 °F 55.6 °F 30.00 in ESE 8.0 mph 11.0 mph 67% 0.00 in
05:28 66.9 °F 55.6 °F 30.00 in ESE 9.0 mph 12.0 mph 67% 0.00 in
05:33 67.0 °F 55.7 °F 30.00 in ESE 11.0 mph 11.0 mph 67% 0.00 in
05:38 67.0 °F 55.7 °F 30.00 in ESE 6.0 mph 13.0 mph 67% 0.00 in
05:43 66.9 °F 56.0 °F 30.00 in ESE 9.0 mph 10.0 mph 68% 0.00 in
05:48 66.7 °F 55.8 °F 30.01 in SE 4.0 mph 11.0 mph 68% 0.00 in
05:53 66.6 °F 56.1 °F 30.01 in East 7.0 mph 10.0 mph 69% 0.00 in
05:58 66.6 °F 56.1 °F 30.01 in SE 7.0 mph 10.0 mph 69% 0.00 in
06:03 66.5 °F 56.0 °F 30.01 in SE 11.0 mph 11.0 mph 69% 0.00 in
06:08 66.4 °F 56.3 °F 30.01 in SE 9.0 mph 9.0 mph 70% 0.00 in
06:13 66.6 °F 56.5 °F 30.02 in ESE 6.0 mph 10.0 mph 70% 0.00 in
06:18 66.4 °F 56.3 °F 30.01 in SE 6.0 mph 10.0 mph 70% 0.00 in
06:23 66.4 °F 56.3 °F 30.01 in ESE 8.0 mph 12.0 mph 70% 0.00 in
06:28 66.2 °F 56.5 °F 30.02 in ESE 6.0 mph 10.0 mph 71% 0.00 in
06:33 66.1 °F 56.4 °F 30.02 in SE 8.0 mph 9.0 mph 71% 0.00 in
06:38 66.2 °F 56.5 °F 30.02 in SE 5.0 mph 10.0 mph 71% 0.00 in
06:44 65.8 °F 56.5 °F 30.01 in ESE 8.0 mph 12.0 mph 72% 0.00 in
06:49 65.8 °F 56.5 °F 30.02 in ESE 7.0 mph 11.0 mph 72% 0.00 in
06:54 65.6 °F 56.7 °F 30.02 in SE 10.0 mph 10.0 mph 73% 0.00 in
06:59 65.5 °F 56.6 °F 30.02 in East 9.0 mph 11.0 mph 73% 0.00 in
07:04 65.4 °F 56.5 °F 30.02 in SE 5.0 mph 9.0 mph 73% 0.00 in
07:09 65.4 °F 56.9 °F 30.02 in ESE 7.0 mph 10.0 mph 74% 0.00 in
07:14 65.2 °F 56.7 °F 30.02 in ESE 5.0 mph 10.0 mph 74% 0.00 in
07:19 65.0 °F 56.5 °F 30.03 in SE 5.0 mph 10.0 mph 74% 0.00 in
07:24 64.8 °F 56.7 °F 30.03 in ESE 4.0 mph 7.0 mph 75% 0.00 in
07:29 64.6 °F 56.9 °F 30.03 in ESE 6.0 mph 7.0 mph 76% 0.00 in
07:34 64.6 °F 56.9 °F 30.03 in ESE 5.0 mph 7.0 mph 76% 0.00 in
07:39 64.3 °F 56.6 °F 30.03 in SE 4.0 mph 7.0 mph 76% 0.00 in
07:44 64.1 °F 56.8 °F 30.03 in ESE 5.0 mph 6.0 mph 77% 0.00 in
07:49 63.9 °F 56.6 °F 30.03 in ESE 4.0 mph 5.0 mph 77% 0.00 in
07:54 63.7 °F 56.7 °F 30.03 in ESE 2.0 mph 7.0 mph 78% 0.00 in
07:59 63.6 °F 56.6 °F 30.03 in ESE 5.0 mph 6.0 mph 78% 0.00 in
08:04 63.6 °F 56.6 °F 30.04 in ESE 5.0 mph 6.0 mph 78% 0.00 in
08:09 63.7 °F 57.1 °F 30.04 in SE 4.0 mph 6.0 mph 79% 0.00 in
08:14 64.0 °F 57.0 °F 30.04 in ESE 7.0 mph 7.0 mph 78% 0.00 in
08:19 64.3 °F 57.3 °F 30.04 in ESE 5.0 mph 7.0 mph 78% 0.00 in
08:24 64.6 °F 57.2 °F 30.03 in ESE 4.0 mph 5.0 mph 77% 0.00 in
08:29 64.7 °F 57.7 °F 30.04 in ESE 4.0 mph 6.0 mph 78% 0.00 in
08:34 64.8 °F 57.4 °F 30.04 in East 5.0 mph 6.0 mph 77% 0.00 in
08:39 65.1 °F 57.7 °F 30.04 in ESE 5.0 mph 7.0 mph 77% 0.00 in
08:44 65.3 °F 57.9 °F 30.04 in ESE 6.0 mph 8.0 mph 77% 0.00 in
08:49 65.6 °F 57.8 °F 30.04 in ESE 7.0 mph 8.0 mph 76% 0.00 in
08:54 65.9 °F 58.1 °F 30.04 in East 7.0 mph 9.0 mph 76% 0.00 in
08:59 66.2 °F 58.4 °F 30.04 in ESE 5.0 mph 8.0 mph 76% 0.00 in
09:04 66.4 °F 58.2 °F 30.05 in East 6.0 mph 9.0 mph 75% 0.00 in
09:09 66.7 °F 58.5 °F 30.05 in ESE 8.0 mph 10.0 mph 75% 0.00 in
09:14 66.9 °F 58.7 °F 30.04 in ENE 6.0 mph 11.0 mph 75% 0.00 in
09:19 67.2 °F 59.4 °F 30.05 in ESE 4.0 mph 7.0 mph 76% 0.00 in
09:24 67.3 °F 59.1 °F 30.05 in ESE 6.0 mph 12.0 mph 75% 0.00 in
09:29 67.6 °F 59.4 °F 30.04 in East 9.0 mph 11.0 mph 75% 0.00 in
09:34 67.8 °F 59.2 °F 30.04 in ESE 8.0 mph 11.0 mph 74% 0.00 in
09:39 68.0 °F 59.4 °F 30.05 in ESE 8.0 mph 13.0 mph 74% 0.00 in
09:44 68.2 °F 59.6 °F 30.04 in ESE 6.0 mph 12.0 mph 74% 0.00 in
09:49 68.4 °F 59.8 °F 30.04 in ESE 8.0 mph 14.0 mph 74% 0.00 in
09:54 68.7 °F 59.7 °F 30.04 in ESE 8.0 mph 12.0 mph 73% 0.00 in
09:59 69.0 °F 59.6 °F 30.04 in ESE 15.0 mph 15.0 mph 72% 0.00 in
10:04 69.2 °F 60.6 °F 30.04 in SE 7.0 mph 12.0 mph 74% 0.00 in
10:09 69.3 °F 60.3 °F 30.05 in ESE 9.0 mph 13.0 mph 73% 0.00 in
10:14 69.7 °F 60.7 °F 30.05 in ESE 11.0 mph 12.0 mph 73% 0.00 in
10:19 70.0 °F 61.0 °F 30.05 in SE 12.0 mph 14.0 mph 73% 0.00 in
10:24 70.1 °F 60.3 °F 30.05 in ESE 11.0 mph 18.0 mph 71% 0.00 in
10:29 70.3 °F 60.5 °F 30.05 in ESE 16.0 mph 16.0 mph 71% 0.00 in
10:35 70.5 °F 60.7 °F 30.05 in SE 8.0 mph 15.0 mph 71% 0.00 in
10:40 70.7 °F 60.8 °F 30.05 in ESE 15.0 mph 17.0 mph 71% 0.00 in
10:41 70.8 °F 60.5 °F 30.05 in SE 11.0 mph 17.0 mph 70% 0.00 in
10:46 71.0 °F 60.7 °F 30.05 in ESE 12.0 mph 16.0 mph 70% 0.00 in
10:51 71.3 °F 61.0 °F 30.05 in SE 13.0 mph 13.0 mph 70% 0.00 in
10:56 71.6 °F 60.5 °F 30.05 in SE 7.0 mph 15.0 mph 68% 0.00 in
11:01 71.8 °F 60.7 °F 30.05 in SE 10.0 mph 13.0 mph 68% 0.00 in
11:06 72.1 °F 61.4 °F 30.05 in SE 15.0 mph 16.0 mph 69% 0.00 in
11:11 72.2 °F 60.7 °F 30.05 in SE 11.0 mph 15.0 mph 67% 0.00 in
11:16 72.2 °F 61.1 °F 30.05 in ESE 11.0 mph 17.0 mph 68% 0.00 in
11:21 72.6 °F 61.4 °F 30.05 in ESE 16.0 mph 16.0 mph 68% 0.00 in
11:26 72.6 °F 61.4 °F 30.05 in SE 12.0 mph 14.0 mph 68% 0.00 in
11:31 72.7 °F 62.0 °F 30.05 in ESE 13.0 mph 21.0 mph 69% 0.00 in
11:37 72.8 °F 61.6 °F 30.05 in SE 11.0 mph 18.0 mph 68% 0.00 in
11:42 73.0 °F 61.8 °F 30.05 in SE 12.0 mph 17.0 mph 68% 0.00 in
11:47 73.4 °F 62.2 °F 30.04 in ESE 13.0 mph 17.0 mph 68% 0.00 in
11:52 73.5 °F 62.3 °F 30.04 in SE 12.0 mph 17.0 mph 68% 0.00 in
11:57 73.5 °F 61.9 °F 30.05 in ESE 13.0 mph 17.0 mph 67% 0.00 in
12:02 73.7 °F 63.3 °F 30.04 in ESE 9.0 mph 13.0 mph 70% 0.00 in
12:07 73.9 °F 62.3 °F 30.04 in ESE 18.0 mph 21.0 mph 67% 0.00 in
12:12 73.9 °F 62.3 °F 30.04 in ESE 8.0 mph 16.0 mph 67% 0.00 in
12:17 74.5 °F 62.8 °F 30.03 in SE 11.0 mph 15.0 mph 67% 0.00 in
12:22 74.6 °F 62.1 °F 30.03 in ESE 15.0 mph 16.0 mph 65% 0.00 in
12:27 74.6 °F 62.9 °F 30.03 in ESE 14.0 mph 15.0 mph 67% 0.00 in
12:32 74.9 °F 63.6 °F 30.03 in SE 11.0 mph 12.0 mph 68% 0.00 in
12:37 74.9 °F 61.5 °F 30.03 in ESE 11.0 mph 18.0 mph 63% 0.00 in
12:42 75.2 °F 63.1 °F 30.03 in ESE 15.0 mph 15.0 mph 66% 0.00 in
12:47 75.5 °F 62.9 °F 30.03 in SE 12.0 mph 13.0 mph 65% 0.00 in
12:52 75.1 °F 63.0 °F 30.03 in SE 13.0 mph 15.0 mph 66% 0.00 in
12:57 74.8 °F 61.8 °F 30.03 in SE 11.0 mph 16.0 mph 64% 0.00 in
13:02 74.6 °F 61.6 °F 30.03 in SE 8.0 mph 18.0 mph 64% 0.00 in
13:07 74.5 °F 62.8 °F 30.03 in SE 10.0 mph 15.0 mph 67% 0.00 in
13:12 75.2 °F 62.2 °F 30.03 in SE 12.0 mph 14.0 mph 64% 0.00 in
13:17 75.2 °F 62.2 °F 30.03 in ESE 12.0 mph 15.0 mph 64% 0.00 in
13:22 75.2 °F 61.8 °F 30.03 in SE 13.0 mph 24.0 mph 63% 0.00 in
13:27 75.0 °F 62.0 °F 30.04 in SSE 13.0 mph 17.0 mph 64% 0.00 in
13:33 74.6 °F 62.1 °F 30.04 in SE 11.0 mph 17.0 mph 65% 0.00 in
13:38 74.4 °F 62.3 °F 30.03 in ESE 15.0 mph 22.0 mph 66% 0.00 in
13:43 74.3 °F 62.2 °F 30.03 in ESE 16.0 mph 16.0 mph 66% 0.00 in
13:48 74.3 °F 61.8 °F 30.03 in ESE 14.0 mph 16.0 mph 65% 0.00 in
13:53 74.4 °F 61.9 °F 30.03 in East 6.0 mph 13.0 mph 65% 0.00 in
13:58 74.7 °F 63.0 °F 30.03 in SSE 7.0 mph 9.0 mph 67% 0.00 in
14:03 75.1 °F 61.7 °F 30.03 in SE 13.0 mph 22.0 mph 63% 0.00 in
14:08 75.1 °F 62.1 °F 30.03 in SE 5.0 mph 15.0 mph 64% 0.00 in
14:13 75.3 °F 62.7 °F 30.03 in SE 9.0 mph 17.0 mph 65% 0.00 in
14:18 75.6 °F 63.0 °F 30.02 in ESE 10.0 mph 14.0 mph 65% 0.00 in
14:23 75.7 °F 63.1 °F 30.02 in ESE 14.0 mph 17.0 mph 65% 0.00 in
14:28 75.4 °F 61.9 °F 30.03 in SE 13.0 mph 18.0 mph 63% 0.00 in
14:33 75.5 °F 62.5 °F 30.02 in SE 17.0 mph 17.0 mph 64% 0.00 in
14:38 75.8 °F 63.2 °F 30.02 in SSE 14.0 mph 16.0 mph 65% 0.00 in
14:43 75.9 °F 62.4 °F 30.02 in ESE 11.0 mph 19.0 mph 63% 0.00 in
14:48 75.9 °F 62.4 °F 30.01 in ESE 10.0 mph 17.0 mph 63% 0.00 in
14:53 75.7 °F 62.2 °F 30.01 in SE 11.0 mph 16.0 mph 63% 0.00 in
14:58 75.7 °F 62.2 °F 30.00 in ESE 15.0 mph 16.0 mph 63% 0.00 in
15:03 75.7 °F 61.8 °F 30.01 in SE 14.0 mph 15.0 mph 62% 0.00 in
15:08 75.8 °F 60.9 °F 30.00 in SE 8.0 mph 22.0 mph 60% 0.00 in
15:13 76.1 °F 60.8 °F 30.00 in SSE 12.0 mph 15.0 mph 59% 0.00 in
15:18 76.1 °F 61.2 °F 30.00 in SE 15.0 mph 17.0 mph 60% 0.00 in
15:23 76.3 °F 61.9 °F 30.00 in ESE 14.0 mph 18.0 mph 61% 0.00 in
15:28 76.5 °F 61.6 °F 30.00 in SE 10.0 mph 12.0 mph 60% 0.00 in
15:33 76.6 °F 63.1 °F 30.00 in ESE 9.0 mph 9.0 mph 63% 0.00 in
15:38 76.7 °F 62.2 °F 29.99 in SE 11.0 mph 13.0 mph 61% 0.00 in
15:43 76.5 °F 62.1 °F 29.99 in ESE 10.0 mph 15.0 mph 61% 0.00 in
15:49 76.4 °F 61.0 °F 29.99 in ESE 14.0 mph 14.0 mph 59% 0.00 in
15:54 76.2 °F 61.3 °F 29.98 in SE 11.0 mph 17.0 mph 60% 0.00 in
15:59 76.3 °F 61.4 °F 29.99 in SE 7.0 mph 15.0 mph 60% 0.00 in
16:04 76.2 °F 61.3 °F 29.98 in ESE 10.0 mph 17.0 mph 60% 0.00 in
16:09 76.2 °F 60.8 °F 29.98 in ESE 11.0 mph 14.0 mph 59% 0.00 in
16:14 76.3 °F 61.9 °F 29.98 in SSE 8.0 mph 14.0 mph 61% 0.00 in
16:19 76.2 °F 61.3 °F 29.99 in East 15.0 mph 15.0 mph 60% 0.00 in
16:24 76.0 °F 60.2 °F 29.98 in ESE 12.0 mph 17.0 mph 58% 0.00 in
16:29 75.9 °F 60.6 °F 29.99 in ESE 9.0 mph 15.0 mph 59% 0.00 in
16:34 76.0 °F 60.7 °F 29.99 in ESE 10.0 mph 13.0 mph 59% 0.00 in
16:39 76.0 °F 61.1 °F 29.98 in SE 14.0 mph 14.0 mph 60% 0.00 in
16:44 76.0 °F 60.2 °F 29.98 in ESE 9.0 mph 15.0 mph 58% 0.00 in
16:49 75.9 °F 60.1 °F 29.98 in SE 7.0 mph 16.0 mph 58% 0.00 in
16:54 75.8 °F 60.5 °F 29.99 in SE 9.0 mph 15.0 mph 59% 0.00 in
16:59 75.7 °F 59.9 °F 29.98 in ESE 10.0 mph 16.0 mph 58% 0.00 in
17:04 75.5 °F 60.7 °F 29.98 in ESE 10.0 mph 13.0 mph 60% 0.00 in
17:09 75.3 °F 60.0 °F 29.98 in ESE 9.0 mph 11.0 mph 59% 0.00 in
17:14 75.3 °F 60.5 °F 29.98 in SE 5.0 mph 10.0 mph 60% 0.00 in
17:19 75.3 °F 60.0 °F 29.98 in SE 9.0 mph 18.0 mph 59% 0.00 in
17:24 75.3 °F 60.0 °F 29.98 in SE 8.0 mph 13.0 mph 59% 0.00 in
17:29 75.3 °F 60.0 °F 29.98 in SE 9.0 mph 15.0 mph 59% 0.00 in
17:34 75.2 °F 59.4 °F 29.98 in ESE 10.0 mph 15.0 mph 58% 0.00 in
17:39 75.2 °F 59.4 °F 29.98 in East 11.0 mph 11.0 mph 58% 0.00 in
17:44 75.3 °F 59.5 °F 29.98 in SE 9.0 mph 13.0 mph 58% 0.00 in
17:49 75.2 °F 59.4 °F 29.98 in SE 12.0 mph 13.0 mph 58% 0.00 in
17:54 75.3 °F 59.0 °F 29.98 in ESE 10.0 mph 15.0 mph 57% 0.00 in
17:59 75.2 °F 59.4 °F 29.97 in SE 9.0 mph 11.0 mph 58% 0.00 in
18:04 74.9 °F 59.1 °F 29.97 in ESE 8.0 mph 10.0 mph 58% 0.00 in
18:09 74.9 °F 59.1 °F 29.97 in ESE 8.0 mph 11.0 mph 58% 0.00 in
18:14 75.1 °F 59.3 °F 29.97 in SE 6.0 mph 11.0 mph 58% 0.00 in
18:19 75.2 °F 59.4 °F 29.97 in ESE 6.0 mph 11.0 mph 58% 0.00 in
18:24 75.3 °F 58.5 °F 29.97 in SE 8.0 mph 16.0 mph 56% 0.00 in
18:29 75.4 °F 59.1 °F 29.97 in ESE 7.0 mph 16.0 mph 57% 0.00 in
18:34 75.3 °F 59.5 °F 29.97 in East 10.0 mph 14.0 mph 58% 0.00 in
18:40 75.1 °F 58.8 °F 29.96 in SE 10.0 mph 15.0 mph 57% 0.00 in
18:45 75.0 °F 58.8 °F 29.97 in SE 8.0 mph 12.0 mph 57% 0.00 in
18:50 74.7 °F 59.4 °F 29.96 in ESE 6.0 mph 9.0 mph 59% 0.00 in
18:55 74.5 °F 59.2 °F 29.96 in SE 6.0 mph 10.0 mph 59% 0.00 in
19:00 74.6 °F 58.9 °F 29.96 in ESE 7.0 mph 11.0 mph 58% 0.00 in
19:05 74.4 °F 58.7 °F 29.97 in ESE 4.0 mph 9.0 mph 58% 0.00 in
19:10 74.2 °F 59.0 °F 29.97 in SE 7.0 mph 11.0 mph 59% 0.00 in
19:15 74.2 °F 59.0 °F 29.96 in East 10.0 mph 11.0 mph 59% 0.00 in
19:20 73.9 °F 58.7 °F 29.97 in ESE 6.0 mph 8.0 mph 59% 0.00 in
19:25 73.7 °F 58.5 °F 29.97 in ESE 5.0 mph 6.0 mph 59% 0.00 in
19:30 73.7 °F 58.5 °F 29.97 in ESE 6.0 mph 9.0 mph 59% 0.00 in
19:35 73.6 °F 58.4 °F 29.97 in East 7.0 mph 7.0 mph 59% 0.00 in
19:40 73.3 °F 58.6 °F 29.97 in ESE 5.0 mph 6.0 mph 60% 0.00 in
19:45 73.0 °F 58.3 °F 29.97 in SE 4.0 mph 8.0 mph 60% 0.00 in
19:46 73.0 °F 58.3 °F 29.97 in ESE 7.0 mph 8.0 mph 60% 0.00 in
19:51 72.9 °F 58.2 °F 29.97 in ESE 5.0 mph 8.0 mph 60% 0.00 in
19:56 72.9 °F 58.2 °F 29.97 in SE 5.0 mph 7.0 mph 60% 0.00 in
20:02 72.8 °F 58.6 °F 29.97 in ESE 4.0 mph 5.0 mph 61% 0.00 in
20:07 72.4 °F 58.2 °F 29.97 in ESE 2.0 mph 5.0 mph 61% 0.00 in
20:11 72.0 °F 58.3 °F 29.97 in ESE 4.0 mph 5.0 mph 62% 0.00 in
20:16 71.8 °F 58.5 °F 29.97 in ESE 3.0 mph 5.0 mph 63% 0.00 in
20:22 71.8 °F 58.5 °F 29.97 in ESE 4.0 mph 7.0 mph 63% 0.00 in
20:27 71.6 °F 58.8 °F 29.98 in East 3.0 mph 6.0 mph 64% 0.00 in
20:32 71.5 °F 58.7 °F 29.98 in East 4.0 mph 7.0 mph 64% 0.00 in
20:37 71.3 °F 58.9 °F 29.98 in East 4.0 mph 5.0 mph 65% 0.00 in
20:42 71.1 °F 58.8 °F 29.98 in East 4.0 mph 5.0 mph 65% 0.00 in
20:47 70.9 °F 59.0 °F 29.98 in East 3.0 mph 4.0 mph 66% 0.00 in
20:52 70.7 °F 58.8 °F 29.98 in ESE 4.0 mph 7.0 mph 66% 0.00 in
20:57 70.6 °F 58.7 °F 29.98 in ESE 3.0 mph 6.0 mph 66% 0.00 in
21:02 70.6 °F 58.7 °F 29.99 in East 4.0 mph 8.0 mph 66% 0.00 in
21:07 70.5 °F 58.6 °F 29.99 in ESE 4.0 mph 6.0 mph 66% 0.00 in
21:12 70.5 °F 58.6 °F 29.99 in ESE 3.0 mph 8.0 mph 66% 0.00 in
21:17 70.6 °F 58.7 °F 29.99 in East 6.0 mph 9.0 mph 66% 0.00 in
21:22 70.6 °F 58.7 °F 29.99 in ESE 6.0 mph 8.0 mph 66% 0.00 in
21:27 70.8 °F 58.9 °F 29.99 in ENE 4.0 mph 10.0 mph 66% 0.00 in
21:32 70.9 °F 58.6 °F 29.99 in East 7.0 mph 9.0 mph 65% 0.00 in
21:37 70.8 °F 58.9 °F 29.99 in ESE 6.0 mph 7.0 mph 66% 0.00 in
21:43 71.0 °F 58.7 °F 29.99 in ESE 4.0 mph 8.0 mph 65% 0.00 in
21:48 70.8 °F 58.9 °F 30.00 in ESE 3.0 mph 9.0 mph 66% 0.00 in
21:53 70.6 °F 58.7 °F 30.00 in East 4.0 mph 6.0 mph 66% 0.00 in
21:58 70.5 °F 58.6 °F 30.00 in ESE 5.0 mph 5.0 mph 66% 0.00 in
22:03 70.3 °F 58.8 °F 30.00 in East 3.0 mph 5.0 mph 67% 0.00 in
22:08 70.4 °F 58.5 °F 30.01 in East 5.0 mph 8.0 mph 66% 0.00 in
22:13 70.2 °F 58.7 °F 30.00 in ESE 5.0 mph 6.0 mph 67% 0.00 in
22:18 70.0 °F 58.5 °F 30.01 in ESE 3.0 mph 6.0 mph 67% 0.00 in
22:23 69.8 °F 58.8 °F 30.01 in ESE 6.0 mph 6.0 mph 68% 0.00 in
22:28 69.8 °F 58.8 °F 30.01 in East 6.0 mph 6.0 mph 68% 0.00 in
22:33 69.9 °F 58.5 °F 30.01 in ESE 6.0 mph 8.0 mph 67% 0.00 in
22:38 70.0 °F 58.5 °F 30.01 in ESE 4.0 mph 8.0 mph 67% 0.00 in
22:43 69.9 °F 58.5 °F 30.01 in SE 6.0 mph 8.0 mph 67% 0.00 in
22:48 69.8 °F 58.4 °F 30.01 in SE 8.0 mph 9.0 mph 67% 0.00 in
22:53 69.7 °F 58.7 °F 30.01 in SE 3.0 mph 10.0 mph 68% 0.00 in
22:58 69.7 °F 58.7 °F 30.01 in ESE 5.0 mph 10.0 mph 68% 0.00 in
23:03 69.7 °F 58.7 °F 30.01 in ESE 10.0 mph 14.0 mph 68% 0.00 in
23:08 69.7 °F 58.7 °F 30.01 in SE 6.0 mph 8.0 mph 68% 0.00 in
23:13 69.6 °F 58.6 °F 30.01 in East 7.0 mph 11.0 mph 68% 0.00 in
23:18 69.6 °F 58.6 °F 30.01 in ESE 7.0 mph 11.0 mph 68% 0.00 in
23:23 69.7 °F 58.7 °F 30.01 in ESE 8.0 mph 11.0 mph 68% 0.00 in
23:28 69.8 °F 58.8 °F 30.01 in SE 8.0 mph 11.0 mph 68% 0.00 in
23:33 70.0 °F 59.0 °F 30.02 in ESE 7.0 mph 11.0 mph 68% 0.00 in
23:38 70.1 °F 59.1 °F 30.02 in ESE 8.0 mph 12.0 mph 68% 0.00 in
23:43 70.2 °F 58.7 °F 30.02 in East 7.0 mph 13.0 mph 67% 0.00 in
23:48 70.1 °F 59.1 °F 30.02 in ESE 11.0 mph 11.0 mph 68% 0.00 in
23:53 70.2 °F 58.7 °F 30.02 in ESE 9.0 mph 13.0 mph 67% 0.00 in
23:58 70.3 °F 58.8 °F 30.03 in SE 7.0 mph 14.0 mph 67% 0.00 in
Compliments of Weather Underground